Crane Lake, MN

5:15 PM CST on February 23, 2017 (GMT -0600)
Crane Lake

Weather History for KCDD - December, 2012

Change the Weather History Date:

Sunday, December 23, 2012

  Actual Average Record
Temperature  
Mean Temperature 3 °F -  
Max Temperature 15 °F 16 °F 35 °F (2005)
Min Temperature -9 °F 0 °F -29 °F (2004)
Degree Days  
Heating Degree Days 62    
Moisture  
Dew Point 0 °F    
Average Humidity 90    
Maximum Humidity 92    
Minimum Humidity 84    
Precipitation  
Precipitation 0.00 in - - ()
Sea Level Pressure  
Sea Level Pressure 30.12 in    
Wind  
Wind Speed 2 mph (NW)    
Max Wind Speed 7 mph    
Max Gust Speed -    
Visibility 9 miles    
Events Snow    
Averages and records for this station are not official NWS values.
T = Trace of Precipitation, MM = Missing Value Source: NWS Daily Summary

Daily Weather History Graph

Daily Weather History Graph

Search for Another Location

Airport or City:

Trip Planner

Search our weather history database for the weather conditions in past years. The results will help you decide how hot, cold, wet, or windy it might be!

Date:

Astronomy

Dec. 23, 2012 Rise Set
Actual Time 7:59 AM CST 4:19 PM CST
Civil Twilight 7:22 AM CST 4:56 PM CST
Nautical Twilight 6:42 AM CST 5:36 PM CST
Astronomical Twilight 6:04 AM CST 6:14 PM CST
Moon 1:19 PM CST 3:31 AM CST
Length of Visible Light 9h 33m
Length of Day
8h 20m
Waxing Gibbous, 82% of the Moon is Illuminated
Dec 23
Waxing Gibbous
Dec 28
Full
Jan 4
Last Quarter
Jan 11
New
Jan 18
First Quarter

Hourly Weather History & Observations

Time (CST) Temp. Windchill Dew Point Humidity Pressure Visibility Wind Dir Wind Speed Gust Speed Precip Events Conditions
12:03 AM 10.4 °F -0.4 °F 8.6 °F 92% 30.11 in 7.0 mi NNW 6.9 mph - N/A Snow Light Snow
12:23 AM 10.4 °F 0.8 °F 8.6 °F 92% 30.11 in 7.0 mi NNW 5.8 mph - N/A Snow Light Snow
12:43 AM 8.6 °F 2.0 °F 6.8 °F 92% 30.11 in 10.0 mi NNW 3.5 mph - N/A   Overcast
1:03 AM 8.6 °F 0.1 °F 6.8 °F 92% 30.11 in 7.0 mi NNW 4.6 mph - N/A Snow Light Snow
1:23 AM 6.8 °F - 5.0 °F 92% 30.12 in 10.0 mi Calm Calm - N/A   Mostly Cloudy
1:43 AM 5.0 °F - 1.4 °F 85% 30.12 in 5.0 mi Calm Calm - N/A Snow Light Snow
2:03 AM 1.4 °F - -0.4 °F 92% 30.13 in 5.0 mi Calm Calm - N/A   Scattered Clouds
2:23 AM -0.4 °F - -2.2 °F 92% 30.13 in 10.0 mi Calm Calm - N/A   Clear
2:43 AM -0.4 °F - -2.2 °F 92% 30.14 in 10.0 mi Calm Calm - N/A   Clear
3:03 AM 1.4 °F - -0.4 °F 92% 30.14 in 10.0 mi Calm Calm - N/A   Clear
3:23 AM 1.4 °F - -2.2 °F 85% 30.14 in 10.0 mi Calm Calm - N/A   Clear
3:43 AM 1.4 °F - -0.4 °F 92% 30.15 in 10.0 mi Calm Calm - N/A   Clear
4:03 AM -0.4 °F - -2.2 °F 92% 30.15 in 10.0 mi Calm Calm - N/A   Clear
4:23 AM -2.2 °F - -5.8 °F 85% 30.15 in 7.0 mi Calm Calm - N/A   Clear
4:43 AM -4.0 °F - -7.6 °F 85% 30.15 in 10.0 mi Calm Calm - N/A   Clear
5:03 AM -4.0 °F - -7.6 °F 85% 30.16 in 10.0 mi Calm Calm - N/A   Clear
5:23 AM -5.8 °F - -7.6 °F 92% 30.16 in 10.0 mi Calm Calm - N/A   Clear
5:43 AM -5.8 °F - -7.6 °F 92% 30.15 in 10.0 mi Calm Calm - N/A   Clear
6:03 AM -5.8 °F - -9.4 °F 84% 30.15 in 10.0 mi Calm Calm - N/A   Clear
6:23 AM -7.6 °F - -9.4 °F 92% 30.15 in 10.0 mi Calm Calm - N/A   Clear
6:43 AM -7.6 °F - -9.4 °F 92% 30.15 in 10.0 mi Calm Calm - N/A   Clear
7:03 AM -7.6 °F - -11.2 °F 84% 30.14 in 10.0 mi Calm Calm - N/A   Clear
7:43 AM -9.4 °F - -11.2 °F 92% 30.14 in 10.0 mi Calm Calm - N/A   Clear
8:03 AM -9.4 °F - -13.0 °F 84% 30.14 in 10.0 mi Calm Calm - N/A   Clear
8:23 AM -9.4 °F - -11.2 °F 92% 30.13 in 10.0 mi Calm Calm - N/A   Clear
8:43 AM -9.4 °F - -11.2 °F 92% 30.13 in 10.0 mi Calm Calm - N/A   Clear
9:03 AM -7.6 °F - -9.4 °F 92% 30.13 in 10.0 mi Calm Calm - N/A   Clear
9:23 AM -4.0 °F - -5.8 °F 92% 30.14 in 10.0 mi Calm Calm - N/A   Clear
9:43 AM 1.4 °F - -0.4 °F 92% 30.14 in 10.0 mi Calm Calm - N/A   Clear
10:03 AM 5.0 °F -2.1 °F 3.2 °F 92% 30.13 in 10.0 mi NW 3.5 mph - N/A   Clear
10:43 AM 10.4 °F 4.0 °F 8.6 °F 92% 30.13 in 10.0 mi NW 3.5 mph - N/A   Clear
11:03 AM 12.2 °F 6.1 °F 10.4 °F 92% 30.13 in 10.0 mi NW 3.5 mph - N/A   Clear
11:23 AM 12.2 °F - 10.4 °F 92% 30.13 in 10.0 mi Calm Calm - N/A   Clear
11:43 AM 12.2 °F 6.1 °F 10.4 °F 92% 30.12 in 10.0 mi NW 3.5 mph - N/A Snow Light Snow
12:03 PM 12.2 °F 4.3 °F 10.4 °F 92% 30.12 in 5.0 mi NW 4.6 mph - N/A Snow Light Snow
12:23 PM 15.8 °F 8.6 °F 12.2 °F 86% 30.12 in 5.0 mi NNW 4.6 mph - N/A Snow Light Snow
12:43 PM 15.8 °F 8.6 °F 12.2 °F 86% 30.11 in 7.0 mi NW 4.6 mph - N/A Snow Light Snow
1:03 PM 15.8 °F - 12.2 °F 86% 30.11 in 10.0 mi Calm Calm - N/A   Scattered Clouds
2:03 PM 15.8 °F 8.6 °F 12.2 °F 86% 30.10 in 10.0 mi NW 4.6 mph - N/A   Clear
2:23 PM 14.0 °F 6.5 °F 10.4 °F 86% 30.10 in 10.0 mi NW 4.6 mph - N/A Snow Light Snow
2:43 PM 12.2 °F 4.3 °F 10.4 °F 92% 30.11 in 10.0 mi NW 4.6 mph - N/A   Clear
3:03 PM 12.2 °F 4.3 °F 8.6 °F 85% 30.11 in 10.0 mi NW 4.6 mph - N/A   Clear
3:23 PM 8.6 °F - 6.8 °F 92% 30.10 in 10.0 mi Calm Calm - N/A   Clear
3:43 PM 6.8 °F - 3.2 °F 85% 30.11 in 10.0 mi Calm Calm - N/A   Clear
4:03 PM 3.2 °F - 1.4 °F 92% 30.11 in 10.0 mi Calm Calm - N/A   Clear
4:23 PM 3.2 °F - 1.4 °F 92% 30.11 in 10.0 mi Calm Calm - N/A   Clear
4:43 PM 1.4 °F - -0.4 °F 92% 30.11 in 10.0 mi Calm Calm - N/A   Clear
5:03 PM 1.4 °F - -2.2 °F 85% 30.11 in 10.0 mi Calm Calm - N/A   Clear
5:23 PM 1.4 °F - -0.4 °F 92% 30.10 in 10.0 mi Calm Calm - N/A   Clear
5:43 PM 1.4 °F - -2.2 °F 85% 30.10 in 10.0 mi Calm Calm - N/A   Clear
6:03 PM 1.4 °F - -0.4 °F 92% 30.11 in 10.0 mi Calm Calm - N/A   Clear
6:23 PM 1.4 °F - -0.4 °F 92% 30.11 in 10.0 mi Calm Calm - N/A   Clear
6:43 PM 1.4 °F - -0.4 °F 92% 30.12 in 10.0 mi Calm Calm - N/A   Clear
7:03 PM 1.4 °F - -0.4 °F 92% 30.12 in 7.0 mi Calm Calm - N/A Snow Light Snow
7:23 PM 1.4 °F -6.2 °F -2.2 °F 85% 30.12 in 7.0 mi WNW 3.5 mph - N/A Snow Light Snow
7:43 PM -0.4 °F - -2.2 °F 92% 30.12 in 10.0 mi Calm Calm - N/A   Clear
8:03 PM -0.4 °F - -2.2 °F 92% 30.12 in 10.0 mi Calm Calm - N/A   Clear
8:23 PM -0.4 °F - -4.0 °F 85% 30.11 in 10.0 mi Calm Calm - N/A   Clear
8:43 PM -2.2 °F - -4.0 °F 92% 30.10 in 10.0 mi Calm Calm - N/A   Clear
9:03 PM -2.2 °F - -4.0 °F 92% 30.09 in 10.0 mi Calm Calm - N/A   Mostly Cloudy
9:23 PM -0.4 °F - -4.0 °F 85% 30.09 in 10.0 mi Calm Calm - N/A   Overcast
9:43 PM -2.2 °F - -4.0 °F 92% 30.08 in 10.0 mi Calm Calm - N/A   Overcast
10:03 PM -2.2 °F - -4.0 °F 92% 30.09 in 10.0 mi Calm Calm - N/A   Overcast
10:23 PM -2.2 °F - -4.0 °F 92% 30.08 in 10.0 mi Calm Calm - N/A   Overcast
10:43 PM -2.2 °F - -4.0 °F 92% 30.09 in 10.0 mi Calm Calm - N/A   Overcast
11:03 PM -2.2 °F -10.4 °F -4.0 °F 92% 30.09 in 10.0 mi West 3.5 mph - N/A   Overcast
11:23 PM -2.2 °F -14.2 °F -5.8 °F 85% 30.09 in 10.0 mi WNW 5.8 mph - N/A   Overcast
11:43 PM -2.2 °F -14.2 °F -5.8 °F 85% 30.09 in 10.0 mi NW 5.8 mph - N/A   Overcast